Theta_e
356 357 358 357 358 357 355 356 358 360 359 356 359 359 357 357 358 357 359 359 357 356 357 356 359 359 358 358 359 361 361 361 361 359 358 357 359 358 360 360 361 361 360 360 359 360 358 358 359 359 359 358 358 358 357 357 357 357 357 357 357 356 356 356 356 356 356 357 357 356 355 350 349 349 347 347 345 345 346 347 342 346 346 345 341
356 357 357 359 358 358 358 357 358 360 359 359 361 360 358 358 359 359 357 358 356 358 358 354 353 355 357 357 357 356 361 360 361 359 360 359 360 359 359 360 360 361 361 361 360 359 359 359 359 359 359 359 359 358 358 358 357 358 357 357 356 356 357 356 356 356 356 356 356 356 355 352 349 352 350 349 348 345 348 348 346 344 344 343 340
358 359 359 358 358 359 358 359 358 358 361 359 362 362 362 361 362 363 363 362 359 360 360 355 355 353 355 356 356 359 359 361 359 358 357 361 360 360 358 359 360 359 360 361 361 360 360 361 361 361 361 360 360 360 360 359 357 357 357 356 357 356 356 356 356 357 356 357 357 357 356 356 355 352 352 351 351 349 350 349 348 345 345 344 344
362 361 360 360 358 358 360 360 359 359 361 361 364 367 366 367 368 370 369 367 362 361 362 353 353 351 355 355 357 357 358 359 357 356 358 360 362 361 360 357 359 359 360 360 361 362 362 362 362 363 362 363 363 363 362 362 362 361 360 358 358 357 357 357 358 357 358 358 358 358 357 356 355 353 351 350 348 351 350 350 350 348 346 343 344
363 363 362 360 361 362 360 363 362 362 366 367 369 370 367 366 365 368 367 365 359 359 360 354 352 353 353 353 355 356 358 360 360 358 355 357 361 361 361 361 359 358 360 360 361 362 362 362 363 363 363 363 363 364 364 364 364 364 364 363 362 361 361 360 360 359 359 359 359 358 358 358 357 353 352 350 348 346 346 349 350 349 345 345 345
365 365 364 362 362 363 362 361 365 369 369 369 364 365 363 363 362 361 361 360 355 357 353 352 352 353 353 354 356 357 357 356 357 356 357 357 359 363 362 362 363 363 361 360 359 361 362 362 363 363 363 363 364 364 364 364 364 365 365 366 365 364 364 364 363 363 362 362 362 361 360 359 358 357 354 351 349 347 347 347 346 348 347 346 345
367 366 365 362 359 362 362 362 367 368 365 368 366 365 364 363 363 361 360 358 356 359 354 354 352 353 356 357 355 356 358 356 358 358 358 361 362 359 362 363 362 364 364 363 366 360 356 358 362 363 364 365 366 365 365 366 365 365 365 366 366 366 366 365 365 365 365 364 364 362 360 360 360 358 353 351 352 350 344 343 348 348 350 347 348
368 368 363 364 361 362 363 367 368 367 366 367 366 364 365 363 364 364 358 354 356 353 356 354 353 352 355 358 357 357 356 357 356 355 355 360 360 360 362 364 364 363 364 364 365 366 360 359 360 362 363 364 364 365 366 366 367 367 368 368 368 367 366 366 365 365 365 365 361 360 357 359 359 353 350 346 352 351 343 341 344 346 350 351 349
368 368 366 364 362 363 364 367 368 366 366 365 363 364 364 358 365 367 365 362 354 351 353 356 353 353 353 353 354 357 356 358 357 357 356 359 360 356 358 361 364 363 367 365 367 367 365 360 359 361 362 362 362 362 363 364 365 367 368 368 367 368 368 368 367 366 366 364 361 361 357 358 356 357 358 352 355 351 349 348 346 345 347 350 351
369 367 366 363 364 363 364 368 366 366 365 364 363 364 364 362 361 366 365 363 356 353 351 352 350 349 352 351 357 355 357 359 360 360 360 359 360 360 359 358 359 359 360 363 361 365 366 364 361 361 362 362 360 361 362 363 365 365 365 365 366 368 368 369 369 368 368 365 365 364 363 363 362 362 362 361 360 357 355 351 349 347 347 348 352
368 368 367 363 363 364 365 368 366 364 364 363 362 363 363 363 361 363 368 365 360 357 355 357 349 349 349 351 353 360 361 359 361 361 360 355 355 358 356 361 360 361 365 365 362 365 367 368 369 369 368 363 360 361 361 362 362 362 363 364 366 368 369 369 369 369 368 367 366 365 364 364 364 364 364 363 362 361 359 357 352 351 350 350 351
368 368 367 364 362 362 365 365 365 363 362 360 360 361 363 362 363 362 362 361 363 360 356 355 351 352 351 352 354 355 357 357 358 358 359 358 358 359 355 355 359 361 358 361 363 361 366 369 370 367 367 365 362 361 360 361 361 362 363 366 369 370 371 370 369 369 368 367 365 364 364 365 364 364 364 363 363 363 362 359 357 355 354 352 351
368 367 365 365 365 364 364 365 365 364 363 362 364 365 366 366 365 368 359 357 354 355 357 355 353 348 355 350 352 354 352 357 355 354 354 355 357 358 359 358 358 359 364 362 362 362 362 368 367 369 369 371 369 364 362 362 362 363 365 368 370 370 370 369 368 368 367 366 365 365 365 364 364 364 364 363 363 362 362 361 360 359 357 354 353
368 367 367 365 364 362 364 363 365 365 366 367 366 366 366 364 363 360 364 357 353 354 354 355 347 345 343 346 346 350 355 351 349 348 350 352 354 357 359 354 351 352 357 362 365 364 360 363 368 365 369 369 369 370 373 369 368 363 365 367 369 368 368 368 368 367 367 366 365 365 364 364 364 364 363 362 362 361 361 360 360 360 359 358 356
367 367 365 364 363 362 363 365 364 365 364 362 362 363 365 363 364 361 356 358 357 358 359 357 344 348 351 350 341 344 351 352 350 349 347 349 351 351 352 349 349 353 358 358 360 364 359 361 364 367 369 370 368 369 371 370 365 365 365 365 364 365 368 369 369 368 367 366 365 364 363 364 364 363 363 362 361 361 360 359 359 359 359 359 359
366 364 364 365 364 363 363 363 365 366 364 362 362 361 364 363 360 362 363 351 349 351 357 359 353 348 342 342 342 343 336 342 346 347 348 347 347 347 349 349 349 355 359 359 350 357 363 365 362 367 369 369 368 369 368 366 364 369 367 371 362 362 365 368 370 368 367 366 365 363 363 364 363 363 363 362 361 360 359 359 358 358 358 359 358
365 365 364 365 366 365 364 363 364 365 364 362 362 360 362 363 365 363 362 357 348 349 354 354 355 360 349 346 342 338 339 341 343 346 346 343 344 344 351 351 348 355 355 354 357 359 354 354 364 366 368 368 366 365 367 368 369 371 375 369 363 362 362 365 368 368 367 366 366 365 364 363 363 363 362 360 358 357 356 357 357 357 356 357 358
365 365 365 364 365 366 366 363 363 364 364 361 363 363 363 362 364 363 361 363 360 350 347 354 355 362 359 352 349 341 342 346 344 339 357 347 347 344 346 346 348 351 358 354 351 351 358 355 361 361 363 363 364 366 365 368 371 370 373 369 364 365 363 362 365 367 367 365 365 365 365 363 363 361 359 357 357 357 357 356 356 355 353 354 354
363 365 365 366 365 366 366 365 363 363 365 365 363 359 360 362 365 364 362 366 365 354 352 348 358 356 352 351 353 354 349 346 342 347 339 348 348 344 344 346 344 344 344 345 346 348 355 359 353 353 359 364 364 365 367 366 370 367 368 363 366 365 362 362 362 365 366 365 365 365 365 364 361 358 357 356 356 355 354 354 352 352 353 353 353
363 365 365 365 365 364 365 365 364 363 363 363 362 361 364 366 367 368 368 368 364 357 353 351 350 351 355 353 351 353 355 351 350 344 344 342 341 346 346 345 344 344 346 345 345 346 350 359 353 352 357 362 365 364 365 368 370 369 365 361 364 365 362 361 362 363 365 366 365 364 364 361 359 357 357 356 355 355 354 353 351 351 351 351 351
363 364 365 365 365 364 365 364 363 363 365 364 363 363 363 364 366 367 364 366 365 362 361 357 352 350 355 355 354 351 350 350 353 352 344 342 337 341 345 349 347 347 351 350 349 350 350 351 355 354 360 364 366 366 365 368 369 373 363 365 365 364 363 361 362 362 363 364 365 363 361 360 359 357 357 356 356 355 353 351 350 349 349 349 350
363 364 366 366 365 366 364 363 363 362 363 363 364 364 364 365 364 363 365 364 367 364 361 360 357 356 355 358 356 355 354 352 348 348 347 348 340 340 343 343 341 346 352 349 351 352 352 352 353 352 358 364 364 367 369 370 372 364 364 361 363 363 363 361 361 361 360 363 363 363 361 360 360 358 356 354 353 352 351 349 348 348 347 347 348
360 363 363 363 364 366 363 363 364 365 364 363 363 361 361 362 363 366 368 366 363 364 363 362 361 360 356 359 354 349 350 348 349 350 347 345 346 340 341 344 342 343 350 354 355 352 357 355 352 354 364 362 367 369 371 370 368 365 361 361 361 362 363 363 360 360 358 358 362 361 360 360 359 357 355 352 350 349 348 346 345 345 346 345 345
362 359 361 359 363 364 366 364 365 365 364 364 363 363 363 364 364 366 366 369 368 365 362 360 358 360 356 353 353 351 352 351 350 353 351 349 349 345 343 350 348 345 350 360 353 351 355 355 357 360 361 363 368 373 375 375 371 358 366 361 359 361 363 365 362 359 356 356 357 359 359 358 357 355 353 351 348 347 346 344 343 343 344 344 343
360 359 360 361 364 365 365 364 365 366 366 365 366 367 366 364 365 364 365 367 366 365 361 359 358 356 353 354 353 351 352 353 352 350 351 352 352 348 343 347 344 344 351 354 352 354 356 357 360 361 363 366 367 374 370 368 368 366 362 364 357 361 361 363 363 357 355 354 355 355 356 355 353 352 351 350 348 347 345 344 342 342 342 343 343
360 361 361 361 362 364 365 365 367 367 368 368 368 367 368 365 365 365 363 367 367 366 364 361 362 361 360 355 353 352 352 352 353 352 349 349 348 345 350 347 344 344 352 355 359 349 353 359 362 368 366 367 369 371 373 368 367 364 363 366 364 354 359 360 363 362 358 355 355 356 357 355 353 352 351 349 347 345 343 342 342 340 340 342 343
362 364 365 364 364 365 365 365 366 368 369 368 366 368 370 369 368 367 368 367 367 365 363 360 357 360 361 360 356 353 354 355 352 351 351 351 349 349 350 345 342 342 343 350 354 352 351 358 358 359 365 371 372 374 374 370 367 365 366 377 373 356 355 356 360 361 360 358 357 356 357 358 356 354 352 350 346 345 344 340 340 339 339 340 341
366 366 364 365 364 364 365 365 367 367 368 369 369 368 370 368 367 367 367 365 367 365 363 361 360 361 360 362 360 354 356 354 355 353 354 355 355 354 355 352 344 340 344 343 344 347 353 352 357 359 360 366 370 370 369 370 366 367 370 376 378 372 355 354 356 358 356 354 356 358 356 356 357 355 355 353 350 348 346 343 339 338 338 339 339
363 365 364 367 367 365 364 363 366 368 368 369 368 370 371 368 365 367 366 365 367 366 364 362 363 360 360 360 360 359 359 363 360 357 361 365 359 357 355 351 353 347 343 341 347 342 349 349 346 358 362 366 371 367 370 371 366 370 367 372 373 377 360 351 352 353 354 354 353 355 355 355 357 356 356 355 353 351 348 344 340 337 337 337 336
363 361 364 365 367 367 366 365 366 367 367 367 368 369 370 367 366 368 366 369 367 367 366 364 364 364 362 361 360 357 360 360 358 356 361 365 357 357 357 357 358 351 348 344 345 349 347 350 350 350 362 365 362 364 365 368 365 369 369 371 369 372 355 350 351 351 352 352 352 351 353 355 356 356 357 356 355 352 350 346 343 339 337 336 335
365 366 366 364 366 366 368 365 366 367 368 367 370 370 370 367 365 364 367 369 367 366 368 366 364 364 364 362 364 360 362 361 362 358 360 361 359 357 358 360 359 357 355 352 344 353 351 348 350 354 354 361 359 359 360 365 365 366 369 371 373 363 354 368 356 353 350 350 349 349 349 351 351 351 351 351 350 350 350 348 345 342 340 337 336
364 365 365 364 364 363 363 362 362 364 365 366 367 368 369 367 364 361 365 368 366 366 365 366 363 364 365 363 364 363 363 362 362 362 362 362 360 358 359 359 360 358 358 354 351 349 355 350 352 354 356 359 364 363 362 362 366 362 373 373 377 366 372 370 360 354 351 348 347 346 345 345 343 343 347 349 348 348 349 348 346 343 341 338 336
365 363 364 365 366 365 363 364 362 365 366 365 367 369 368 367 366 366 367 368 366 365 366 366 364 364 365 364 364 364 366 364 362 361 359 361 362 360 361 360 357 360 358 357 351 352 358 360 356 355 358 361 356 363 362 359 360 364 365 369 374 369 367 368 369 359 352 348 345 344 343 342 341 341 343 346 347 347 348 347 346 345 343 340 337
365 363 365 364 365 365 364 365 366 365 367 369 365 366 366 365 364 363 364 367 367 365 367 366 366 364 363 364 364 364 367 365 363 360 359 357 357 356 359 359 358 358 363 357 356 354 352 358 358 361 358 362 357 366 362 360 361 366 363 365 365 367 368 368 368 366 352 351 347 344 342 341 339 339 341 343 346 346 346 345 344 341 341 339 337
365 364 364 363 366 367 365 366 368 366 368 366 366 366 365 365 364 363 363 366 366 364 364 365 365 365 363 364 363 364 364 364 364 363 363 361 361 360 360 361 361 360 362 363 359 354 354 355 361 356 358 361 360 360 363 362 367 368 370 366 361 361 365 367 366 360 353 351 348 345 342 341 340 339 339 338 341 343 343 342 340 338 338 335 331
361 365 365 364 366 368 366 367 368 367 367 366 365 366 366 365 365 364 365 366 366 365 364 364 363 364 364 364 362 363 365 364 364 363 363 364 364 364 363 365 365 362 364 365 364 360 357 355 360 359 361 361 361 363 364 365 364 366 366 366 366 365 364 362 362 359 355 352 349 345 344 341 339 338 337 337 337 336 337 337 336 334 331 331 330
360 362 366 367 367 367 363 365 366 367 367 367 367 365 364 364 365 363 364 366 366 366 365 366 364 365 365 364 363 364 366 363 363 362 363 363 363 362 361 364 363 363 364 364 364 363 360 358 358 363 366 364 365 367 368 363 362 364 368 370 368 368 368 363 358 357 355 349 347 345 343 342 342 339 337 336 335 334 333 333 333 332 331 328 326
361 360 363 364 365 367 367 366 366 367 368 368 368 367 364 364 365 364 365 366 365 366 366 365 366 366 364 365 365 365 364 362 360 362 365 365 364 362 362 363 363 364 364 365 366 365 363 361 361 359 364 360 362 364 368 366 361 359 362 365 366 370 370 363 359 357 357 358 358 356 351 348 342 334 337 338 335 333 332 332 333 331 328 325 321
358 358 359 363 365 365 367 366 364 366 367 367 369 369 367 366 365 366 363 364 365 366 366 365 364 365 365 364 365 365 364 364 362 362 363 364 363 363 364 365 363 363 360 360 362 362 361 359 358 360 360 363 364 359 365 370 367 365 361 359 359 363 368 369 365 361 359 357 356 352 353 352 349 351 343 333 333 333 332 331 330 328 328 325 322
357 357 357 358 361 362 363 364 365 366 367 366 368 369 368 366 365 365 365 364 363 363 363 365 364 363 364 364 362 363 365 366 365 365 366 364 365 363 363 365 365 364 361 359 361 360 359 357 355 354 357 359 362 364 365 368 365 364 366 360 356 358 361 367 369 365 365 365 360 353 351 351 349 347 334 337 337 335 333 332 333 334 332 328 325
356 357 358 357 358 359 360 362 363 364 362 362 363 365 366 366 366 364 365 364 364 363 364 362 363 365 365 363 362 361 365 368 367 367 365 366 363 363 365 366 366 364 364 362 361 361 360 358 358 360 359 360 361 361 358 358 355 353 359 362 360 361 362 361 364 368 368 361 360 356 356 360 359 361 362 365 368 355 351 337 344 341 336 330 327
360 361 361 360 358 358 358 361 362 360 360 360 363 354 357 364 366 363 363 366 366 365 365 364 362 363 362 361 360 364 366 367 367 365 360 358 360 362 364 366 365 365 363 362 361 360 359 357 354 353 351 351 349 353 353 354 358 363 360 362 359 358 361 361 362 365 368 362 356 359 361 362 358 359 362 362 362 370 366 366 364 355 343 331 330
361 362 361 359 358 357 356 357 358 357 358 358 352 340 340 345 362 365 364 366 367 366 364 366 365 362 362 363 363 364 366 365 366 365 362 358 357 356 357 359 363 364 361 359 359 359 358 356 355 355 351 352 354 355 354 351 353 357 356 359 358 358 358 354 351 359 374 364 364 361 360 365 367 361 362 361 361 362 363 365 349 342 337 334 332
359 358 358 358 358 356 355 355 355 355 356 356 340 337 336 335 346 362 363 363 362 364 363 362 363 362 361 361 361 360 362 363 363 365 367 363 356 354 353 353 354 355 357 360 359 357 359 357 356 356 355 354 355 357 353 351 354 355 358 359 360 358 356 355 354 354 366 371 363 360 357 364 367 364 362 363 363 364 361 352 343 337 333 332 331
357 359 360 358 359 358 356 356 354 355 355 350 338 336 334 333 334 349 359 361 360 359 361 362 362 362 364 363 361 361 359 360 361 362 365 365 364 356 352 352 352 350 341 341 347 358 358 357 356 356 356 357 356 357 357 358 362 356 358 355 359 359 360 357 356 356 361 370 365 360 356 361 363 361 360 362 363 364 362 347 338 336 333 331 330
356 357 356 358 358 360 359 358 358 356 356 338 331 334 331 330 332 339 358 359 360 360 361 361 360 361 362 363 362 362 362 363 364 362 361 362 362 362 363 363 362 361 358 344 340 342 351 356 358 356 360 363 360 361 364 364 361 357 355 354 358 357 358 358 363 363 366 365 360 358 356 358 360 358 358 361 362 364 367 354 341 335 332 329 328
356 358 358 358 359 359 358 358 357 354 345 323 325 325 328 328 329 337 356 356 358 360 362 362 363 362 362 362 362 360 361 362 362 359 358 359 360 359 360 359 359 360 361 359 358 358 358 355 356 358 359 360 361 363 364 365 363 362 361 360 360 360 360 363 363 365 365 368 366 362 353 356 359 357 359 361 360 362 364 350 341 336 333 330 328
355 356 356 358 358 355 356 357 357 352 344 322 322 322 323 325 329 348 356 358 358 358 359 360 359 361 360 360 361 360 360 360 357 345 350 356 356 357 357 358 358 358 358 361 346 347 355 356 357 357 357 356 346 362 362 358 358 362 364 365 365 363 361 358 356 356 355 360 365 360 354 355 361 355 357 361 361 361 364 364 347 340 335 331 329
353 353 354 353 352 350 351 352 352 351 348 327 319 319 321 324 340 355 355 355 356 355 354 355 355 356 356 357 358 357 357 361 343 329 332 347 356 356 356 356 356 356 356 358 344 332 331 330 329 330 329 328 328 327 326 327 343 351 356 355 353 355 354 352 353 353 353 356 357 361 356 353 358 359 357 359 361 360 360 361 363 343 334 332 329
354 355 354 350 349 349 349 351 348 348 339 326 317 316 318 322 344 358 359 357 357 358 357 359 359 359 357 352 354 359 358 357 327 323 327 346 357 358 357 356 356 355 357 358 357 354 332 325 325 325 326 327 326 326 327 327 327 336 351 349 352 353 351 353 350 352 353 356 357 360 358 354 358 359 357 360 361 360 361 364 365 360 341 334 327
347 351 351 349 348 351 351 348 346 341 335 331 317 314 315 316 340 357 357 357 356 356 355 356 358 357 358 356 353 352 352 339 320 321 325 345 355 356 356 356 354 356 357 359 357 357 359 359 361 362 358 344 350 355 356 336 334 342 350 354 355 354 352 352 352 351 349 353 360 365 356 356 356 357 357 354 352 357 362 363 363 365 366 366 366
Wind_Speed
7 6 6 6 6 6 6 6 6 5 4 4 2 2 2 2 2 2 2 2 2 2 2 2 2 2 2 1 0 0 0 1 1 1 2 2 2 1 2 4 6 6 6 7 8 8 9 9 9 9 9 9 9 9 8 8 8 8 8 8 9 9 9 9 9 10 10 11 11 10 8 12 8 2 2 5 3 1 5 8 6 8 5 1 0
6 6 6 6 6 6 6 5 5 4 3 3 2 1 2 1 2 2 3 2 2 2 2 3 2 2 1 1 1 2 1 1 1 1 1 1 1 2 3 4 5 7 7 7 7 8 8 8 8 9 9 9 9 9 9 10 10 10 10 9 9 9 10 10 10 9 10 11 10 9 9 5 5 2 8 9 9 7 8 9 9 4 3 4 2
6 5 5 5 5 6 5 5 4 3 2 2 1 2 2 2 2 2 2 2 2 2 2 2 2 1 1 1 1 1 1 1 1 1 1 1 1 2 2 4 5 6 7 7 7 7 8 8 8 9 9 9 10 10 10 10 10 10 10 10 10 9 9 9 9 9 10 10 11 11 9 7 4 0 4 4 2 6 8 12 12 8 4 6 1
5 5 5 5 5 5 4 4 4 3 2 2 2 2 2 2 1 1 1 1 2 2 1 1 2 2 1 1 1 2 1 1 2 2 2 1 1 2 2 2 4 5 6 6 7 7 8 8 8 8 9 9 10 10 10 10 11 11 10 10 9 8 8 8 9 9 9 9 10 11 9 7 4 6 5 6 5 3 7 8 12 10 7 4 3
3 4 4 4 4 4 4 4 4 3 3 2 2 1 2 3 3 1 2 2 3 2 1 1 2 2 3 2 2 2 2 2 2 2 2 2 1 1 2 2 3 3 6 6 6 7 8 8 8 8 9 9 9 10 10 10 10 10 10 10 10 10 10 9 9 9 9 9 10 11 10 8 6 2 7 6 5 3 1 2 10 12 7 7 5
3 3 3 4 4 4 4 4 3 3 3 2 3 3 4 5 5 4 3 3 3 3 3 3 3 2 2 3 2 2 2 2 2 3 3 3 2 2 2 2 2 3 3 4 6 7 7 7 8 9 9 9 10 10 10 11 11 11 11 11 11 10 10 10 10 9 9 9 9 10 10 10 9 7 4 6 8 7 5 3 4 11 15 11 9
3 3 3 3 4 4 4 4 3 3 3 3 3 4 4 5 5 5 4 3 3 3 4 4 4 3 3 2 3 2 2 3 3 3 3 3 3 3 3 3 3 3 3 3 3 6 6 6 7 8 9 10 10 10 10 11 11 12 12 12 12 11 11 10 10 9 9 9 9 8 9 9 11 8 8 1 7 7 7 2 7 8 16 14 15
3 3 3 3 3 4 4 3 3 3 3 4 4 4 4 5 5 5 5 5 4 4 3 4 4 4 3 1 1 1 2 2 3 3 3 2 3 3 3 3 3 3 3 3 3 3 4 6 7 8 9 9 9 10 11 12 12 12 13 12 13 13 12 11 9 8 9 9 8 6 9 8 7 5 1 3 4 4 11 8 4 3 12 17 15
2 2 2 3 3 3 4 3 3 3 3 3 4 4 4 5 4 4 4 3 4 5 4 4 4 3 3 2 2 1 2 2 2 2 2 3 3 3 3 3 3 3 3 3 3 3 3 5 6 8 8 9 8 9 10 11 12 13 13 13 13 13 13 12 10 8 8 8 6 4 3 5 4 4 2 2 10 12 18 14 10 7 9 12 18
2 2 1 2 3 3 3 3 2 3 3 3 4 4 4 5 5 4 4 3 4 5 5 5 4 3 3 3 1 1 1 2 1 2 2 2 2 3 3 3 3 3 3 3 4 3 4 3 5 7 8 6 6 7 9 11 12 12 12 12 11 11 11 10 8 8 10 9 8 8 7 4 4 4 4 4 2 10 15 13 11 10 8 9 14
3 2 2 2 2 2 3 3 2 2 2 3 4 4 4 4 5 5 3 3 4 4 5 4 4 3 4 3 2 1 2 1 2 2 2 3 3 3 3 2 3 3 3 3 3 3 3 4 4 4 3 1 4 6 8 9 10 11 12 11 11 11 11 9 7 8 9 10 9 9 8 7 7 6 6 6 6 8 4 11 13 12 11 9 11
3 2 2 2 1 1 2 2 2 2 2 3 4 3 4 4 5 5 5 2 2 3 4 4 4 3 4 3 2 3 2 2 2 3 2 3 2 3 4 3 3 3 3 3 3 4 3 3 3 3 4 3 3 4 6 7 9 9 10 11 11 10 10 9 9 9 10 10 10 9 7 8 8 7 7 7 8 9 9 8 15 16 13 12 12
3 2 2 2 1 1 1 1 1 2 2 3 3 3 3 3 3 2 5 4 4 4 4 3 4 3 3 3 2 2 1 2 3 3 3 3 2 3 2 3 3 3 3 2 3 3 3 2 3 3 3 3 3 1 2 4 5 7 10 11 11 10 10 10 11 11 11 11 10 8 7 7 8 8 8 9 9 9 9 9 5 7 11 13 12
2 2 2 2 2 1 1 1 1 1 2 2 2 2 3 3 4 3 3 4 4 6 5 5 3 5 5 4 4 2 2 1 3 3 3 2 2 2 2 3 3 3 3 3 3 2 2 2 2 3 3 3 4 4 4 4 5 8 9 9 10 11 10 11 11 12 12 12 11 10 8 8 8 8 8 9 8 10 10 9 9 8 5 11 11
3 3 2 2 1 1 1 1 1 1 1 1 2 3 3 4 5 4 3 3 3 3 5 5 5 4 1 2 5 3 3 4 5 4 4 2 1 1 2 3 3 3 3 3 3 2 3 2 2 2 3 3 3 4 3 4 5 7 7 7 9 10 11 10 11 12 13 12 11 9 8 8 8 8 8 8 9 9 10 10 10 9 9 5 6
3 3 2 2 2 1 1 1 0 1 1 1 2 2 2 3 4 4 4 4 4 5 4 4 5 6 4 4 3 4 5 6 6 4 4 4 3 2 1 1 2 2 2 2 3 3 2 2 2 2 2 2 3 3 3 4 4 3 5 7 8 9 10 10 11 12 12 12 11 9 10 9 8 8 8 9 9 10 10 10 10 9 10 10 7
3 3 2 2 2 1 1 1 1 0 1 1 1 2 2 3 3 4 5 4 4 4 4 5 4 4 4 3 2 4 6 5 5 3 5 5 5 3 2 2 2 2 2 3 3 2 3 3 2 1 1 2 2 3 3 3 3 3 3 7 7 8 8 8 9 11 11 11 10 9 8 9 8 8 9 8 9 9 10 10 10 11 9 10 10
3 3 3 2 2 2 2 2 1 1 1 1 1 1 1 2 3 3 4 4 3 4 5 5 4 3 2 2 2 3 3 5 4 3 3 4 4 4 3 3 2 1 1 2 3 3 2 3 2 2 2 3 2 2 3 2 2 2 3 5 6 6 6 6 7 9 9 9 9 9 8 7 8 8 8 9 8 9 9 9 10 10 10 9 9
4 4 3 3 2 2 2 2 2 1 1 1 1 1 1 2 2 3 3 2 3 4 5 4 3 3 3 3 1 1 1 4 5 3 3 3 5 4 4 4 3 2 2 3 3 3 3 3 4 4 3 2 2 2 2 3 3 2 5 4 5 5 6 5 5 6 8 8 8 8 8 7 7 7 8 8 8 9 9 9 9 10 10 9 10
4 4 4 4 3 3 3 2 2 1 1 1 1 1 1 1 2 2 2 1 2 3 4 4 4 4 4 3 4 3 1 2 4 3 2 3 5 4 4 5 3 4 4 4 5 5 4 3 4 4 3 3 2 2 3 3 3 3 3 4 4 4 4 4 4 5 5 6 6 6 7 7 6 6 6 7 8 8 8 9 9 9 10 10 9
5 4 4 4 3 3 3 3 3 2 2 1 1 1 1 1 0 0 1 1 1 2 2 3 3 4 4 4 3 2 2 1 2 2 3 3 4 6 5 4 2 5 5 4 4 3 3 4 3 3 3 3 2 2 3 3 3 2 3 4 4 4 3 2 3 3 4 5 5 5 5 5 5 5 6 6 7 8 9 9 9 9 9 9 8
4 5 4 4 4 3 3 3 3 2 2 1 1 1 1 1 1 1 1 0 0 0 1 1 2 3 3 3 3 3 2 3 4 4 2 2 3 5 5 5 4 4 5 5 5 5 4 3 2 4 4 3 2 2 3 3 2 3 3 1 3 3 3 3 2 3 3 3 3 4 4 4 4 4 5 6 7 8 9 9 9 9 9 9 8
3 3 4 4 4 4 4 3 3 2 3 2 2 2 2 1 1 1 1 1 1 1 1 0 1 1 1 2 2 4 3 4 5 5 3 3 3 4 4 5 5 5 6 5 4 5 4 4 4 4 3 3 2 2 2 2 1 2 4 3 1 3 3 4 4 3 3 1 2 3 2 3 3 3 3 5 7 8 9 9 9 9 9 9 8
3 3 4 5 4 4 4 4 3 3 3 3 2 2 2 1 1 1 1 2 2 2 1 0 0 1 1 1 1 2 3 3 3 3 3 3 3 3 4 3 2 4 4 4 3 4 5 5 4 4 3 3 3 2 1 1 1 1 5 2 1 1 2 3 5 5 4 3 1 2 3 2 2 2 3 3 5 7 8 8 9 9 9 8 8
4 5 5 6 4 4 5 4 4 4 3 2 3 3 2 2 1 2 2 3 3 3 2 2 1 1 1 0 1 1 2 2 2 3 3 1 1 3 4 3 2 3 4 4 4 3 5 5 5 4 4 3 3 3 3 2 2 3 4 1 3 2 3 3 4 6 6 5 5 4 3 3 2 2 1 1 2 4 6 7 8 8 8 8 8
5 5 5 5 5 5 5 5 4 3 3 3 3 3 3 3 2 2 2 2 2 2 3 2 2 2 1 2 2 0 1 1 1 1 2 1 2 3 3 2 2 3 2 3 3 3 4 4 4 4 4 5 5 4 3 4 3 4 4 5 2 4 4 3 4 5 6 7 6 6 6 6 5 4 3 2 2 2 3 5 7 8 8 7 7
4 4 5 5 5 4 4 5 4 4 4 4 3 3 3 3 2 2 2 2 3 3 3 3 2 2 2 2 2 2 1 1 1 1 1 2 2 3 3 3 2 1 2 2 1 4 4 2 3 4 5 4 4 4 4 4 4 2 5 3 2 5 4 4 4 5 6 6 7 7 6 7 7 7 6 5 3 2 2 3 5 6 7 7 6
3 3 4 5 5 5 5 5 4 4 4 4 4 3 3 3 2 3 4 2 3 4 3 3 3 2 2 1 2 2 1 1 1 1 1 1 1 1 1 2 4 3 3 2 3 2 2 3 1 3 4 4 3 2 3 4 4 5 5 2 2 1 6 4 4 5 6 6 6 7 7 7 8 8 8 7 6 5 3 2 2 4 6 6 6
3 4 4 4 4 5 5 5 5 5 5 5 4 4 3 3 3 3 4 3 3 3 3 3 3 2 2 2 2 2 1 1 2 1 0 1 0 0 1 2 1 2 3 4 2 4 2 4 4 2 4 4 3 3 2 3 4 5 4 4 3 3 4 1 3 5 6 6 6 7 7 8 9 9 9 8 8 7 6 5 3 2 4 5 5
4 3 4 5 4 5 4 4 4 4 4 4 4 4 4 4 4 4 3 2 3 3 3 3 3 2 2 3 2 3 2 3 2 1 1 2 1 1 0 0 1 2 2 3 4 3 3 3 3 3 2 5 4 3 2 3 2 6 4 4 5 5 5 6 5 6 6 6 7 7 7 7 8 9 9 9 8 8 9 7 6 4 4 3 4
4 4 4 5 5 4 4 5 5 5 4 5 4 4 4 4 4 4 4 3 3 4 4 4 3 3 3 3 3 3 3 3 2 2 2 2 1 1 1 1 1 2 2 2 4 1 2 4 4 4 5 5 5 5 5 4 1 4 5 5 5 6 7 4 5 5 6 6 6 7 7 8 8 8 8 8 8 8 9 9 8 7 7 5 5
5 5 5 5 5 5 5 5 5 5 5 5 5 4 4 4 4 4 3 4 4 5 4 3 3 3 4 4 3 3 3 3 3 3 3 2 2 2 2 2 2 2 2 3 4 5 3 5 5 5 5 5 5 5 5 5 0 6 5 5 5 6 5 4 3 5 5 5 5 7 7 8 8 8 8 9 9 9 9 10 10 9 9 6 5
5 5 5 5 5 5 5 5 5 5 5 5 4 4 4 5 4 4 4 4 5 5 4 5 4 4 5 5 5 4 3 4 4 4 3 3 3 3 2 2 3 2 3 3 5 6 5 2 3 5 5 5 5 4 6 6 6 6 7 6 6 6 6 5 5 3 4 4 5 6 7 8 9 9 9 9 10 10 10 10 10 10 9 8 7
6 6 6 5 5 5 6 5 5 6 5 5 5 5 5 5 5 4 5 5 5 6 5 5 5 4 4 5 5 5 4 5 4 5 4 3 4 4 3 3 3 3 2 4 4 5 7 4 4 4 5 3 5 4 5 7 7 7 8 8 7 6 5 6 6 4 5 3 5 6 7 8 9 10 10 10 10 10 11 11 11 10 10 9 9
6 6 6 6 5 6 5 5 5 5 6 6 6 6 5 6 6 6 5 5 5 6 6 5 5 4 4 5 5 5 3 4 4 5 3 4 3 4 4 3 4 4 2 3 4 6 7 6 4 6 5 5 6 7 7 6 7 6 7 8 8 7 6 6 5 5 4 2 4 6 7 8 9 9 9 10 10 10 10 11 11 11 11 10 10
6 5 6 5 5 5 6 5 5 5 5 6 6 6 7 7 6 6 6 6 5 5 5 6 5 4 5 5 5 4 4 4 4 4 4 4 4 4 4 4 4 5 4 3 4 5 6 7 6 6 6 6 6 6 6 6 7 6 6 7 7 6 7 7 6 6 3 4 7 7 8 8 8 9 9 10 10 10 10 11 11 11 12 11 11
6 5 5 5 5 5 6 6 6 6 6 6 6 7 7 7 7 7 6 6 6 6 6 6 5 5 5 6 5 5 4 4 4 4 4 4 4 4 5 4 4 4 4 3 3 4 5 6 7 5 4 5 5 5 4 5 6 6 6 6 6 6 5 7 6 5 4 8 10 9 9 8 8 8 9 9 10 11 11 11 11 11 12 12 12
6 6 6 6 5 6 6 6 6 6 6 6 6 7 8 7 7 7 7 7 6 6 6 6 6 6 6 6 5 5 5 5 5 4 4 5 4 4 4 4 4 4 4 4 3 3 4 5 6 7 5 5 5 5 4 3 6 7 7 6 6 4 4 6 7 6 6 6 6 5 4 7 8 8 8 9 10 11 11 11 11 12 12 13 13
7 7 7 6 6 6 6 7 7 7 7 7 7 7 7 7 7 7 7 7 7 6 6 7 7 6 7 6 6 6 6 5 5 5 5 5 4 5 5 5 5 5 5 4 4 4 4 5 5 5 6 4 4 6 4 3 5 5 5 6 7 5 4 5 7 7 7 7 7 8 6 7 7 6 4 8 10 11 11 11 12 13 13 13 13
8 8 8 7 6 6 7 7 7 7 7 7 7 7 7 7 7 7 7 7 7 7 7 7 7 7 7 7 7 6 6 6 6 5 5 5 4 5 5 4 4 5 5 4 4 4 4 5 5 6 5 5 5 5 5 4 4 3 2 3 6 7 7 6 5 7 7 6 7 6 5 8 7 9 10 10 12 12 12 11 13 12 14 13 13
7 7 7 7 7 7 8 7 7 7 7 7 6 7 7 8 8 8 8 8 8 7 7 8 7 7 7 7 7 7 6 6 6 6 7 5 5 5 5 5 5 5 5 5 4 4 5 5 5 5 5 5 5 5 5 4 5 6 5 4 5 6 6 7 7 5 4 6 7 7 7 7 8 7 6 6 4 8 10 12 9 12 14 14 14
7 6 6 6 7 8 8 8 8 7 7 6 6 10 8 7 8 7 7 7 8 8 7 7 8 8 8 7 6 7 7 8 8 9 10 10 9 8 6 5 5 5 5 6 5 5 5 6 6 6 8 8 7 6 7 7 6 5 5 4 6 6 6 7 8 5 2 5 6 8 8 7 8 8 6 6 6 4 5 4 5 5 7 12 13
4 5 7 8 8 8 8 8 8 8 7 6 10 12 13 12 9 8 7 7 7 8 8 8 8 8 7 7 7 7 8 8 9 11 11 10 10 10 11 10 8 7 7 7 7 6 6 7 7 7 8 9 9 8 8 9 7 6 6 5 5 5 5 6 8 8 2 0 4 7 9 7 5 7 7 7 7 6 6 6 4 8 11 10 10
4 4 6 7 7 8 7 7 8 7 7 7 10 11 11 11 10 8 8 7 7 7 8 8 7 7 7 6 6 5 5 6 5 5 7 9 10 9 9 9 8 9 9 8 7 7 7 7 7 8 8 8 9 8 9 9 8 8 7 6 6 6 6 6 6 8 5 1 5 6 10 8 5 7 8 7 6 6 6 6 7 10 10 11 11
5 5 4 3 4 5 5 5 6 6 7 5 8 8 10 10 11 10 8 8 7 7 7 7 7 7 6 5 6 5 5 3 5 6 6 6 7 9 9 9 10 11 11 12 12 10 8 8 8 9 8 8 9 9 9 9 8 9 8 8 7 7 6 7 7 8 8 6 6 6 8 9 8 8 9 7 6 7 8 8 10 10 11 11 11
6 7 6 5 3 3 3 4 4 4 4 9 6 4 7 9 9 8 8 9 8 8 7 7 6 6 5 5 5 5 5 4 4 5 5 6 6 6 6 6 6 7 10 13 14 15 12 9 9 9 9 8 9 9 9 8 8 8 8 9 8 8 8 8 8 9 9 8 9 8 8 8 8 8 9 8 7 7 7 7 7 10 11 11 11
5 4 5 5 3 4 3 4 4 1 6 11 8 4 2 7 8 8 7 7 6 6 5 5 5 5 5 4 5 5 4 4 3 3 5 5 5 5 5 6 6 6 6 7 7 6 7 8 9 10 10 10 10 10 9 8 9 8 8 9 9 9 9 10 9 9 9 8 8 6 7 7 7 8 9 8 7 8 8 7 9 11 11 11 11
3 4 3 3 3 5 5 4 3 7 7 11 9 9 7 1 6 5 5 5 5 4 4 3 3 3 3 3 4 4 3 3 3 2 3 4 4 5 6 6 6 6 6 6 6 7 8 8 8 9 9 9 9 9 9 9 8 8 7 7 7 7 8 8 9 8 9 7 6 7 9 8 6 9 10 8 8 8 7 8 6 11 11 11 10
6 6 6 6 6 6 5 6 7 7 7 7 8 8 8 7 4 1 2 3 2 3 2 2 2 2 1 1 1 2 1 0 5 2 2 5 4 5 6 7 6 7 8 6 8 12 13 13 14 14 15 16 15 14 14 13 9 8 7 8 9 8 9 9 9 9 9 8 7 7 8 10 7 7 9 8 8 9 9 9 7 7 11 10 10
6 5 6 7 5 4 3 6 6 7 8 8 8 8 8 10 8 1 1 2 3 2 3 2 2 2 2 2 2 1 2 3 6 5 5 4 4 5 6 7 7 8 8 7 6 4 11 13 13 14 15 14 14 14 14 14 13 7 7 9 10 8 10 9 11 10 11 9 9 7 7 10 9 7 9 9 9 8 8 7 5 5 7 10 12
7 6 6 6 6 5 6 8 10 9 7 7 10 8 8 8 5 1 1 3 3 3 4 3 2 2 1 4 7 6 5 4 4 5 6 6 6 8 9 8 8 8 7 8 8 8 8 8 7 6 7 9 9 8 8 13 13 11 10 10 9 9 10 11 11 11 12 9 7 5 7 8 9 9 8 9 10 9 8 7 6 6 6 6 5
Wind_Direction
96 98 100 99 98 99 101 97 94 90 95 95 76 66 79 61 52 35 49 18 23 39 24 51 23 48 1 41 340 90 2 347 357 341 341 325 309 352 258 292 304 312 316 322 324 325 328 332 332 333 336 335 335 333 334 329 326 327 325 322 320 322 322 321 329 328 323 322 322 325 350 57 0 142 281 126 159 12 199 174 191 245 280 296 332
101 102 99 97 99 96 95 90 83 75 76 80 61 35 42 35 35 34 29 38 37 35 4 22 24 15 352 351 357 21 58 326 333 333 340 319 297 299 222 263 285 303 311 313 317 319 321 322 324 325 327 328 330 328 326 326 329 329 329 327 329 327 325 329 326 323 319 316 317 315 327 66 189 164 168 176 172 188 209 190 169 206 273 290 263
96 94 92 90 93 89 79 83 80 69 56 70 46 23 357 4 12 3 19 18 31 31 0 15 19 334 12 320 12 337 349 356 306 293 326 15 318 305 282 239 259 275 293 305 311 312 313 314 314 315 315 315 315 317 319 321 324 324 324 325 326 325 323 318 315 313 315 321 315 319 327 330 349 200 140 199 204 193 223 198 185 206 205 256 293
82 79 81 83 84 84 82 77 76 71 66 51 27 5 357 3 7 346 329 341 21 33 15 359 19 21 330 344 334 316 341 328 307 0 336 336 306 292 294 279 235 249 266 277 287 296 302 305 306 307 306 307 307 306 306 307 309 313 316 322 316 313 310 309 309 312 317 316 311 312 318 321 317 11 27 92 66 230 208 221 193 200 196 254 278
74 72 80 83 80 78 87 78 74 71 59 32 23 19 35 30 40 7 18 4 22 32 356 17 35 18 340 15 343 321 317 291 309 303 331 330 297 305 295 298 305 241 239 255 269 276 286 292 298 299 300 299 299 299 299 301 302 304 305 305 302 300 300 300 304 308 309 306 307 309 311 312 307 282 128 127 140 139 201 207 202 186 194 222 247
85 82 87 100 96 86 84 83 77 62 57 45 50 37 37 29 26 18 23 15 26 27 29 32 34 14 1 2 319 328 312 306 319 333 312 315 337 298 287 288 287 308 303 236 249 267 274 284 289 292 294 294 294 295 297 299 300 300 297 295 292 290 289 291 292 294 295 296 297 301 306 308 310 311 138 162 156 171 182 145 167 208 168 204 208
90 103 98 98 101 90 83 78 68 61 62 50 39 40 32 31 24 20 16 27 24 28 23 24 13 13 2 342 332 340 309 319 323 315 305 316 298 299 294 290 299 302 301 309 221 223 257 277 283 290 292 293 294 298 300 300 299 297 295 294 292 290 288 288 287 286 285 288 288 297 311 312 311 342 28 50 203 167 108 71 205 225 187 193 205
100 110 110 99 95 94 85 81 71 64 58 55 46 40 32 32 28 18 19 28 19 39 31 20 13 9 10 318 323 309 311 327 319 320 344 313 307 303 292 288 286 300 298 296 307 300 230 268 278 284 288 291 299 304 306 304 301 300 298 299 299 299 299 294 290 287 285 285 293 327 352 325 317 359 356 315 199 188 139 173 210 226 195 195 213
105 113 117 116 108 102 96 81 67 59 57 55 51 41 26 30 28 24 18 10 17 28 25 12 9 5 10 358 16 353 328 341 324 333 321 289 289 305 305 300 287 260 267 287 301 312 238 230 269 275 285 291 299 307 309 309 311 310 313 317 317 315 315 315 303 293 290 297 326 333 182 289 312 279 224 275 195 172 182 161 153 189 200 202 204
123 124 100 93 95 96 94 82 71 60 56 52 48 39 33 26 25 23 18 13 15 16 9 8 3 3 7 10 11 326 329 273 283 277 283 291 285 303 307 314 302 310 308 313 313 304 312 275 235 253 255 268 296 305 312 315 316 321 324 325 325 325 325 321 316 309 320 340 351 10 23 352 331 309 302 272 52 197 195 172 169 187 198 213 201
137 140 136 115 107 100 93 89 68 59 44 47 44 37 29 29 24 23 27 29 14 18 14 358 11 360 14 4 354 313 302 292 262 266 283 306 329 315 302 296 307 300 292 294 303 301 304 320 325 330 330 190 304 312 317 319 324 326 328 329 330 332 336 345 341 352 355 7 27 30 27 21 17 11 8 15 23 42 90 182 185 192 199 198 197
147 147 134 120 108 94 91 84 73 55 52 45 42 38 28 26 28 14 21 42 46 21 18 357 8 4 350 340 342 316 291 284 273 272 273 280 291 308 315 322 309 313 312 306 315 320 316 316 315 323 333 349 308 305 321 325 324 327 328 331 339 347 2 17 22 22 26 34 29 29 26 24 22 19 20 28 41 54 73 143 187 205 194 194 199
146 157 141 127 111 102 89 76 66 62 60 64 61 44 37 29 32 25 15 26 40 22 27 345 0 10 353 11 15 343 288 262 290 294 285 287 289 283 289 295 302 305 319 318 310 319 319 314 328 327 338 338 331 331 314 310 308 333 339 343 355 5 16 29 36 41 45 40 33 29 21 28 31 27 24 33 48 60 69 76 125 195 187 198 202
154 156 153 158 149 137 100 63 49 57 59 77 78 60 42 38 31 50 43 26 40 15 16 329 33 12 4 9 39 62 43 3 359 0 337 296 279 268 276 292 324 345 344 327 307 305 319 342 325 346 339 337 342 349 355 356 13 358 346 353 5 11 21 32 40 44 47 43 41 37 29 33 40 40 36 34 40 58 69 75 74 76 169 210 199
165 163 165 176 165 145 147 85 32 21 39 61 60 55 44 43 43 35 26 57 40 40 20 1 25 7 348 339 30 9 85 45 23 31 13 14 329 297 311 316 341 343 334 320 327 335 355 340 333 333 342 344 348 351 356 357 8 340 358 8 13 13 18 30 38 42 45 46 48 44 35 33 39 50 47 39 35 41 56 61 67 68 66 66 206
172 176 167 177 180 191 166 186 120 350 352 27 42 64 52 52 45 44 25 18 35 45 34 29 14 1 32 16 18 356 34 21 356 28 18 60 33 28 32 329 351 338 305 311 355 357 334 319 334 340 347 357 353 349 351 1 350 340 37 30 26 21 16 26 34 39 44 46 52 49 43 35 36 43 47 45 40 35 40 55 64 64 59 63 77
182 182 183 179 186 191 201 192 226 287 326 343 24 40 42 57 47 47 39 16 31 34 48 28 38 19 4 350 35 50 24 9 348 54 21 51 42 48 52 320 16 10 324 341 330 323 345 350 345 341 1 5 3 354 350 2 18 27 68 55 36 27 23 21 31 37 44 46 52 52 42 34 31 33 36 46 46 45 41 44 57 66 61 59 60
194 193 191 194 193 190 198 209 223 216 276 329 16 25 77 45 54 36 46 40 13 29 48 58 44 32 28 67 12 15 354 344 344 41 335 34 37 68 62 33 16 354 313 313 346 356 357 352 353 355 22 9 4 353 349 3 21 41 29 56 39 37 25 19 24 38 44 48 50 53 51 41 30 26 27 35 47 49 50 45 50 61 67 61 55
200 199 192 191 201 197 200 216 220 231 245 263 266 288 59 48 43 50 35 26 9 42 38 43 47 36 38 46 58 358 346 2 18 328 43 27 34 37 49 43 29 31 26 16 11 6 13 354 357 5 24 15 10 355 347 9 51 96 92 69 56 45 35 21 16 35 46 50 51 54 61 59 41 28 21 24 34 42 44 49 48 51 60 66 63
213 198 202 192 193 195 203 213 220 222 239 251 287 326 20 54 43 41 32 18 25 35 37 35 33 42 27 30 71 73 46 31 20 356 348 3 31 40 49 48 62 47 29 17 14 9 2 350 14 16 27 31 16 5 6 10 18 27 65 84 80 58 51 37 24 40 41 52 53 54 63 63 52 38 24 19 22 29 36 41 48 51 52 57 64
226 220 204 205 198 199 195 209 215 215 224 231 254 296 306 347 353 26 35 59 37 43 35 42 18 44 22 32 38 56 62 33 10 359 359 358 46 33 19 29 69 49 24 22 29 23 11 14 16 16 38 44 30 14 25 12 14 23 55 92 97 89 80 59 46 58 45 48 56 63 68 68 62 46 29 17 13 16 23 33 41 48 53 54 55
208 218 214 214 214 205 205 207 215 213 235 246 280 279 269 266 277 283 4 22 98 114 38 71 43 35 40 10 29 30 15 29 17 16 53 359 2 13 29 18 29 24 16 17 21 24 8 11 14 53 47 52 48 46 39 20 9 2 53 32 98 123 125 126 111 85 63 51 62 78 78 81 73 57 35 18 12 13 14 19 33 43 51 55 56
213 201 222 223 219 221 226 210 217 202 225 225 237 250 234 238 236 245 241 230 193 175 142 112 71 31 57 36 18 41 32 21 16 8 5 26 6 28 42 38 24 21 12 4 0 25 22 22 25 44 33 49 44 44 37 30 333 48 296 279 94 120 149 150 151 129 115 58 88 95 102 100 86 67 44 24 11 8 12 16 21 34 49 54 57
214 219 221 221 216 220 223 220 213 216 211 217 232 232 243 239 230 243 235 204 192 197 235 178 230 124 307 59 26 26 47 14 22 31 10 16 351 16 37 359 49 39 17 354 36 32 23 31 30 31 29 37 35 11 2 299 79 147 293 97 256 183 173 175 160 164 155 148 125 115 129 125 107 80 46 32 12 3 5 11 16 23 38 52 58
208 217 218 216 213 216 216 217 217 219 225 218 223 231 245 244 243 251 235 205 191 202 212 221 228 284 277 48 318 4 40 20 6 26 48 39 322 1 37 23 5 49 28 14 17 43 34 32 37 30 32 15 24 4 340 331 357 75 307 300 173 221 224 217 178 168 169 168 167 174 158 145 155 119 117 355 8 358 355 359 8 15 26 40 52
206 206 215 207 215 218 216 222 226 223 219 220 225 225 228 240 238 255 234 204 212 217 240 219 218 221 258 265 253 319 342 11 15 315 12 12 17 27 3 22 1 38 45 16 349 11 55 47 51 48 36 21 19 7 350 341 339 88 331 305 217 185 217 237 227 190 177 178 178 184 189 184 180 193 191 206 261 335 356 351 354 3 13 27 40
211 204 200 205 213 216 219 226 219 221 217 219 218 220 228 234 245 259 265 213 223 238 238 231 225 220 242 260 280 246 328 304 300 338 348 14 13 18 356 4 1 352 31 30 31 41 15 64 40 51 38 21 16 14 4 4 17 357 312 277 337 151 215 213 244 231 195 186 186 186 196 195 194 196 205 205 203 236 284 325 338 345 355 10 24
204 200 202 207 208 213 214 222 223 222 218 219 225 224 216 229 234 239 241 215 224 230 237 239 243 234 250 271 270 266 244 298 311 310 318 13 20 10 328 2 1 346 347 350 357 35 30 1 83 49 28 15 355 5 335 312 28 317 253 325 319 262 175 209 225 242 233 206 200 196 196 197 200 203 208 212 214 222 233 250 311 326 333 343 0
213 206 210 203 209 214 219 223 215 223 222 219 219 224 223 226 223 229 240 229 226 244 247 245 261 255 241 236 265 270 271 325 280 253 342 296 235 213 320 350 354 330 336 333 359 340 5 358 333 44 4 351 335 344 333 336 16 319 354 337 339 320 89 256 241 250 252 233 215 211 201 201 204 204 209 214 216 217 220 231 234 272 309 322 334
210 206 205 207 207 203 217 222 226 223 230 226 218 222 225 231 222 230 237 239 239 236 239 250 248 247 262 253 240 248 240 247 233 268 192 217 187 201 167 254 239 298 312 307 320 293 318 320 304 336 345 327 316 305 316 312 82 296 348 339 337 355 358 292 258 252 254 247 234 223 214 208 206 209 211 213 214 217 217 222 226 225 247 277 307
194 198 207 210 203 200 208 221 215 220 224 232 224 227 225 236 229 232 214 221 234 238 231 234 245 244 246 250 240 252 255 266 278 240 190 216 209 230 230 230 240 251 267 262 292 244 305 310 316 325 322 315 319 324 315 314 353 320 327 341 334 349 295 263 249 249 252 249 244 236 231 223 214 210 211 206 206 213 214 218 219 226 231 243 266
202 192 207 214 208 210 209 216 220 218 218 225 226 224 231 237 236 240 220 218 235 242 246 234 249 239 243 247 242 249 247 251 254 252 225 227 246 248 252 259 249 253 232 260 260 284 278 298 315 311 318 327 310 303 320 315 121 200 330 316 331 290 290 336 197 231 252 250 246 243 241 240 230 219 215 210 209 210 212 215 217 220 225 226 234
197 197 198 204 208 212 221 215 219 213 215 224 227 232 237 243 239 243 247 234 241 249 247 252 253 255 256 259 255 252 251 255 249 253 247 228 231 248 253 258 265 252 251 255 273 283 284 278 295 307 328 325 317 320 316 319 324 337 322 321 316 321 325 326 326 211 230 248 247 242 241 243 241 233 225 219 213 211 212 216 218 218 221 221 225
200 203 202 202 203 210 217 214 214 214 209 211 226 227 234 242 246 237 237 237 241 250 256 256 256 259 258 261 264 260 247 258 261 252 250 251 239 248 241 268 287 277 252 277 285 289 296 293 294 311 309 305 303 309 319 318 324 322 320 320 316 320 322 320 318 327 152 264 248 241 243 242 245 245 239 231 224 218 217 219 219 218 219 218 222
196 206 203 205 196 202 214 216 213 216 211 218 220 222 232 238 247 255 255 246 244 251 249 252 257 258 257 258 262 263 255 257 258 263 271 272 276 278 284 285 289 289 265 252 283 292 300 307 313 305 314 316 309 316 319 316 312 305 307 317 324 328 323 314 316 323 108 293 274 256 246 242 245 247 246 243 241 232 223 221 220 219 219 219 220
201 197 204 205 196 198 212 214 217 222 217 223 223 221 223 232 240 245 249 251 255 255 260 264 262 257 262 268 271 273 277 275 277 285 280 282 283 280 284 283 279 291 291 269 259 288 301 303 310 311 319 318 314 313 314 312 312 318 314 317 314 320 326 325 319 321 1 313 285 269 258 248 241 243 244 246 245 241 233 227 223 220 219 220 219
211 199 192 199 199 202 214 216 218 219 222 222 226 230 227 227 232 240 243 244 248 253 259 262 263 263 265 264 269 269 263 274 280 279 294 298 300 298 294 294 291 296 299 286 283 274 286 294 302 303 295 290 293 296 308 319 320 313 309 303 313 316 319 325 325 326 277 244 252 253 252 247 240 230 238 244 246 245 241 236 230 225 222 222 221
210 214 205 202 202 206 215 222 224 227 226 225 226 234 234 229 228 235 239 242 243 246 249 250 251 251 254 256 259 261 260 264 276 286 288 292 289 287 293 296 296 299 292 284 270 266 274 285 293 302 298 307 310 304 301 301 312 316 315 315 309 298 303 324 331 329 331 333 337 316 248 225 206 214 226 235 241 246 247 242 238 232 228 225 223
218 222 215 211 204 215 215 222 227 227 228 230 228 231 236 236 233 234 240 240 243 245 246 247 249 247 249 252 253 254 257 259 267 271 273 272 276 284 281 282 288 286 284 286 281 279 282 287 293 289 299 296 293 304 300 288 287 278 297 320 321 327 308 313 314 322 324 324 307 236 254 298 303 283 209 215 231 242 247 245 241 238 235 230 226
222 226 227 220 216 218 223 223 227 226 224 227 225 231 235 235 232 232 235 241 243 243 247 248 249 250 248 251 255 253 249 251 253 265 265 272 274 279 279 278 282 279 287 290 286 286 287 292 289 302 296 296 285 280 284 272 289 283 263 307 311 315 319 308 295 304 316 313 312 321 217 219 233 218 226 227 229 238 240 245 240 240 239 236 229
225 225 226 231 228 227 229 228 229 228 228 227 227 222 223 225 233 235 233 235 237 240 243 248 246 247 252 256 255 259 255 246 248 258 276 286 286 287 285 284 280 281 284 287 285 287 285 288 293 286 285 285 288 289 300 298 303 310 307 292 287 291 300 305 303 291 283 304 308 311 318 322 310 312 313 307 261 216 223 219 243 233 236 238 232
217 217 225 227 234 232 230 226 227 229 228 230 212 210 216 228 224 232 232 233 236 237 238 243 246 246 250 257 261 255 250 248 252 247 241 244 242 259 277 283 284 283 284 286 286 287 293 294 295 301 300 298 302 305 302 301 297 278 283 281 290 305 303 300 296 294 271 304 311 311 309 310 308 309 302 296 302 247 293 228 255 263 230 221 229
217 212 215 220 227 228 226 228 226 226 229 227 208 206 209 218 230 231 231 231 230 234 239 240 249 253 251 246 256 241 232 236 240 239 245 244 243 241 245 250 263 275 287 289 288 289 286 288 291 287 292 295 296 302 297 301 303 301 296 288 285 291 300 308 310 310 240 245 309 309 304 311 300 301 300 293 291 298 289 275 247 231 246 243 232
177 207 213 213 218 222 224 227 229 230 235 226 213 212 213 213 220 237 239 239 237 234 240 247 253 259 261 259 255 256 246 248 271 257 239 237 243 252 254 253 246 241 244 258 279 286 284 288 288 288 290 286 291 294 298 302 306 307 300 294 282 282 288 289 289 289 298 282 301 297 295 300 291 290 292 283 287 289 290 279 253 244 247 246 243
168 183 198 210 221 228 228 226 234 235 243 214 207 211 215 213 211 225 246 251 249 247 247 246 254 260 264 271 275 275 285 239 245 260 270 271 241 231 243 250 250 241 231 226 230 244 268 267 272 277 273 280 283 286 292 300 303 295 296 290 291 287 280 276 275 289 292 299 293 283 286 294 297 285 284 288 293 290 288 242 232 243 246 245 243
176 182 197 200 204 220 235 235 241 261 260 37 348 252 232 222 210 205 240 246 247 251 252 254 258 258 258 264 270 270 276 270 269 269 275 274 282 279 264 259 261 246 224 216 220 225 233 249 256 261 262 259 263 267 274 277 281 283 287 285 291 287 284 279 288 284 283 284 278 290 284 278 280 285 281 290 291 286 275 271 232 235 242 243 243
189 183 194 193 191 207 216 222 230 227 52 9 11 360 280 224 201 201 234 240 243 245 244 246 251 259 264 264 262 269 274 275 283 309 290 284 286 284 283 282 274 272 267 259 245 232 217 228 242 249 261 264 266 269 269 267 266 269 270 279 283 283 282 282 275 263 270 259 258 256 268 280 283 276 276 282 288 286 288 281 222 230 238 240 239
199 206 201 207 137 95 64 39 64 74 52 22 10 13 5 6 167 203 212 221 232 241 236 236 248 251 254 260 263 266 275 274 85 75 297 289 280 275 276 278 277 271 266 253 237 247 260 273 266 265 269 282 298 292 296 295 288 280 280 271 265 259 266 272 274 281 278 281 230 247 271 276 272 276 283 285 284 280 284 286 259 213 225 231 236
172 171 173 152 131 127 119 109 112 99 74 33 19 21 14 345 251 144 154 167 168 183 161 137 156 151 150 166 236 270 256 100 63 10 324 282 272 276 278 282 286 289 284 283 205 215 232 237 246 258 268 272 273 275 275 272 261 280 288 280 266 264 267 272 278 279 279 286 270 237 270 285 283 276 279 285 285 283 282 278 279 211 203 219 224
158 136 132 126 129 126 105 92 128 110 76 52 41 31 17 359 332 74 127 139 143 146 136 124 120 130 88 69 334 288 299 45 36 26 352 301 284 287 288 284 286 285 285 290 296 252 208 221 234 243 247 252 254 254 258 257 248 221 227 244 259 273 272 272 281 285 289 286 276 260 256 269 292 288 286 288 285 268 266 267 266 272 197 206 214
80 96 97 110 97 71 73 73 76 79 78 56 42 30 28 16 349 324 265 225 218 212 220 213 211 228 184 121 70 51 49 59 37 24 6 339 299 286 286 289 282 283 289 305 301 305 310 305 284 259 249 232 234 234 235 225 229 207 218 236 259 258 265 271 276 284 285 275 284 227 238 275 288 289 293 298 293 294 286 277 271 271 276 279 229